Date String (YYYY-MM-DD hh:mm:ss) UTC,Instrument flags,Ambient pressure (hPa),Sample flow (lpm),Bypass flow (lpm),Sample temperature (°C),Ambient temperature (°C),ASC tube jacket temperature (°C),LED temperature (°C),Box temperature (°C),Sample RH (%),Span deviation,Mass concentration (μg/m³),Mass concentration (μg/m³),Mass concentration (μg/m³)
DateTimeUTC,F1_M11,P_M11,Q1_M11,Q2_M11,T1_M11,T2_M11,T3_M11,T4_M11,T5_M11,U1_M11,ZSPAN_M11,X0_M11,X2_M11,X1_M11
2021-10-08 02:00:00,,0827.0,5.00,0.00,29.9,28.2,00.0,38.8,31.5,15.0,0000.0,0013.24,0003.96,0003.27
2021-10-08 02:01:00,,0827.0,5.01,0.00,29.7,26.5,00.0,38.8,31.1,15.1,0000.0,0013.53,0003.97,0003.28
2021-10-08 02:02:00,,0827.0,4.99,0.00,29.6,26.3,00.0,38.8,31.0,15.1,0000.0,0014.01,0004.00,0003.28
2021-10-08 02:03:00,,0827.1,4.99,0.00,29.5,26.6,00.0,38.7,31.1,15.1,0000.0,0014.40,0004.02,0003.29
2021-10-08 02:04:00,,0827.0,5.01,0.00,29.5,27.0,00.0,38.7,31.1,15.1,0000.0,0015.12,0004.07,0003.29
2021-10-08 02:05:00,,0827.0,5.00,0.00,29.5,27.4,00.0,38.7,31.2,15.0,0000.0,0015.55,0004.11,0003.29
2021-10-08 02:06:00,,0827.0,4.99,0.00,29.5,27.7,00.0,38.6,31.3,15.2,0000.0,0015.74,0004.12,0003.30
2021-10-08 02:07:00,,0827.3,5.00,0.00,29.5,28.0,00.0,38.6,31.3,15.1,0000.0,0016.00,0004.12,0003.30
2021-10-08 02:08:00,,0827.1,5.01,0.00,29.6,28.2,00.0,38.6,31.3,15.3,0000.0,0015.33,0004.14,0003.29
2021-10-08 02:09:00,,0827.1,5.00,0.00,29.6,28.4,00.0,38.7,31.4,15.4,0000.0,0013.99,0004.16,0003.29
2021-10-08 02:10:00,,0827.1,5.00,0.00,29.6,28.5,00.0,38.7,31.5,15.4,0000.0,0013.82,0004.17,0003.29
2021-10-08 02:11:00,,0827.1,4.99,0.00,29.7,28.6,00.0,38.7,31.5,15.3,0000.0,0013.95,0004.23,0003.29
2021-10-08 02:12:00,,0827.1,5.00,0.00,29.7,28.7,00.0,38.7,31.5,15.1,0000.0,0014.01,0004.25,0003.30
2021-10-08 02:13:00,,0827.2,5.00,0.00,29.7,28.8,00.0,38.7,31.6,15.1,0000.0,0013.72,0004.25,0003.30
2021-10-08 02:14:00,,0827.1,5.00,0.00,29.8,28.8,00.0,38.7,31.6,15.0,0000.0,0013.85,0004.28,0003.30
2021-10-08 02:15:00,,0827.1,5.01,0.00,29.8,28.9,00.0,38.8,31.6,15.0,0000.0,0013.44,0004.31,0003.31
2021-10-08 02:16:00,,0827.1,5.01,0.00,29.8,28.9,00.0,38.8,31.7,14.9,0000.0,0012.88,0004.31,0003.31
2021-10-08 02:17:00,,0827.1,4.99,0.00,29.9,29.0,00.0,38.8,31.7,14.9,0000.0,0012.75,0004.35,0003.31
2021-10-08 02:18:00,,0827.1,5.01,0.00,29.9,29.0,00.0,38.8,31.7,14.8,0000.0,0012.53,0004.34,0003.32
2021-10-08 02:19:00,,0827.1,5.01,0.00,29.9,29.1,00.0,38.8,31.8,14.9,0000.0,0012.75,0004.32,0003.34
2021-10-08 02:20:00,,0827.2,5.00,0.00,29.9,27.7,00.0,38.8,31.4,14.9,0000.0,0013.76,0004.26,0003.34
2021-10-08 02:21:00,,0827.1,5.00,0.00,29.7,26.3,00.0,38.8,31.1,15.1,0000.0,0013.81,0004.24,0003.33
2021-10-08 02:22:00,,0827.0,5.00,0.00,29.6,26.4,00.0,38.8,31.1,15.2,0000.0,0013.64,0004.20,0003.33
2021-10-08 02:23:00,,0827.0,5.00,0.00,29.6,26.7,00.0,38.8,31.1,15.3,0000.0,0013.60,0004.17,0003.32
2021-10-08 02:24:00,,0827.0,4.99,0.00,29.5,27.1,00.0,38.7,31.1,15.3,0000.0,0013.48,0004.18,0003.32
2021-10-08 02:25:00,,0827.0,5.00,0.00,29.5,27.5,00.0,38.7,31.2,15.3,0000.0,0012.95,0004.17,0003.32
2021-10-08 02:26:00,,0827.0,4.99,0.00,29.5,27.8,00.0,38.7,31.3,15.4,0000.0,0012.84,0004.14,0003.33
2021-10-08 02:27:00,,0827.0,5.00,0.00,29.6,28.0,00.0,38.7,31.3,15.4,0000.0,0012.90,0004.15,0003.33
2021-10-08 02:28:00,,0827.0,5.01,0.00,29.6,28.2,00.0,38.7,31.3,15.4,0000.0,0012.55,0004.12,0003.33
2021-10-08 02:29:00,,0827.0,5.01,0.00,29.6,28.3,00.0,38.7,31.4,15.4,0000.0,0013.35,0004.12,0003.33
2021-10-08 02:30:00,,0827.0,4.99,0.00,29.7,28.5,00.0,38.7,31.4,15.4,0000.0,0013.67,0004.13,0003.32
2021-10-08 02:31:00,,0827.0,5.00,0.00,29.7,28.6,00.0,38.7,31.5,15.3,0000.0,0012.85,0004.16,0003.33
2021-10-08 02:32:00,,0827.0,5.00,0.00,29.7,28.7,00.0,38.7,31.5,15.3,0000.0,0012.35,0004.15,0003.32
2021-10-08 02:33:00,,0827.4,5.01,0.00,29.8,28.8,00.0,38.7,31.6,15.2,0000.0,0012.37,0004.13,0003.31
2021-10-08 02:34:00,,0827.1,4.99,0.00,29.8,28.8,00.0,38.8,31.6,15.2,0000.0,0012.12,0004.08,0003.30
2021-10-08 02:35:00,,0827.2,4.99,0.00,29.8,28.9,00.0,38.8,31.7,15.0,0000.0,0012.34,0004.06,0003.30
2021-10-08 02:36:00,,0827.2,5.00,0.00,29.8,28.9,00.0,38.8,31.7,14.9,0000.0,0012.68,0003.99,0003.29
2021-10-08 02:37:00,,0827.4,5.01,0.00,29.9,29.0,00.0,38.8,31.7,14.8,0000.0,0012.33,0004.01,0003.28
2021-10-08 02:38:00,,0827.3,4.99,0.00,29.9,29.0,00.0,38.8,31.7,14.9,0000.0,0012.54,0003.96,0003.27
2021-10-08 02:39:00,,0827.1,5.01,0.00,29.9,29.1,00.0,38.9,31.8,14.8,0000.0,0012.87,0003.93,0003.27
2021-10-08 02:40:00,,0827.0,4.99,0.00,30.0,29.1,00.0,38.9,31.9,14.8,0000.0,0012.00,0003.88,0003.26
2021-10-08 02:41:00,,0827.0,5.00,0.00,30.0,28.4,00.0,38.9,31.7,14.8,0000.0,0011.06,0003.85,0003.24
2021-10-08 02:42:00,,0827.0,5.01,0.00,29.8,26.5,00.0,38.9,31.1,14.9,0000.0,0010.68,0003.83,0003.23
2021-10-08 02:43:00,,0826.9,4.99,0.00,29.7,26.3,00.0,38.9,31.0,15.0,0000.0,0010.34,0003.81,0003.22
2021-10-08 02:44:00,,0827.0,4.99,0.00,29.6,26.6,00.0,38.8,31.1,15.1,0000.0,0010.13,0003.80,0003.21
2021-10-08 02:45:00,,0826.9,5.01,0.00,29.6,27.0,00.0,38.8,31.1,15.1,0000.0,0010.22,0003.78,0003.21
2021-10-08 02:46:00,,0826.9,4.99,0.00,29.6,27.4,00.0,38.7,31.2,15.1,0000.0,0011.15,0003.76,0003.20
2021-10-08 02:47:00,,0826.9,5.01,0.00,29.6,27.7,00.0,38.7,31.3,15.1,0000.0,0011.02,0003.75,0003.20
2021-10-08 02:48:00,,0826.9,4.99,0.00,29.6,28.0,00.0,38.7,31.3,15.1,0000.0,0010.51,0003.72,0003.20
2021-10-08 02:49:00,,0827.2,5.01,0.00,29.6,28.2,00.0,38.7,31.4,15.2,0000.0,0010.22,0003.71,0003.18
2021-10-08 02:50:00,,0827.2,5.00,0.00,29.6,28.3,00.0,38.7,31.4,15.4,0000.0,0009.92,0003.71,0003.17
2021-10-08 02:51:00,,0827.1,5.00,0.00,29.7,28.4,00.0,38.7,31.5,15.3,0000.0,0010.35,0003.72,0003.17
2021-10-08 02:52:00,,0826.9,5.02,0.00,29.7,28.6,00.0,38.7,31.5,15.3,0000.0,0010.43,0003.72,0003.16
2021-10-08 02:53:00,,0826.9,4.99,0.00,29.7,28.7,00.0,38.8,31.5,15.3,0000.0,0010.39,0003.71,0003.17
2021-10-08 02:54:00,,0826.9,5.01,0.00,29.7,28.7,00.0,38.8,31.6,15.3,0000.0,0011.28,0003.70,0003.17
2021-10-08 02:55:00,,0826.9,5.00,0.00,29.8,28.8,00.0,38.8,31.6,15.3,0000.0,0012.14,0003.70,0003.18
2021-10-08 02:56:00,,0827.1,5.00,0.00,29.8,28.9,00.0,38.8,31.7,15.2,0000.0,0012.19,0003.71,0003.18
2021-10-08 02:57:00,,0827.1,5.00,0.00,29.8,29.0,00.0,38.8,31.7,15.2,0000.0,0011.52,0003.72,0003.18
2021-10-08 02:58:00,,0827.0,5.00,0.00,29.9,29.0,00.0,38.8,31.7,15.2,0000.0,0011.68,0003.72,0003.18
2021-10-08 02:59:00,,0827.0,5.01,0.00,29.9,29.1,00.0,38.9,31.8,15.1,0000.0,0011.85,0003.70,0003.18
